マックホルツ第1彗星

96P/Machholz 1 (2002)

English version
Home page
Total 6,336 html files since Dec. 4, 1995
Updated on May 29, 2007

---------------------------------------------------------------------

・ プロフィール

・ 軌道要素

Epoch 2002 Jan. 6.0 TT = JDT 2452280.5  
T 2002 Jan. 8.63372 TT                                  Muraoka 
q   0.1241047            (2000.0)            P               Q
n   0.18844371     Peri.   14.58066     -0.20251443     -0.45938267
a   3.0131098      Node    94.60846     +0.78895254     -0.59970815
e   0.9588118      Incl.   60.18661     +0.58012222     +0.65522339
P   5.23
From 105 observations 1986-1997, mean residual 0".90.

・ 星図

・ 光度変化

        m1 = 12.7 + 5 logΔ + 12.0 log r

---------------------------------------------------------------------

軌道要素は村岡健治氏の計算によるものです。
星図は StellaNavigator Ver.2.0 for Windows (アストロアーツ 編著 / アスキー出版局刊) で作成したものです。
光度グラフはComet for Windowsで作成したものです。

---------------------------------------------------------------------

Copyright(C) 1995-2008 Seiichi Yoshida (comet@aerith.net). All rights reserved.